Wetbulb
62.36 63.15 63.48 63.43 63.63 62.85 62.49 61.97 61.50 61.17 60.80 60.03 58.75 59.01 58.59 58.29 57.93 58.32 58.31 58.75 58.90 59.12 59.22 59.00 58.69 58.25 58.36 58.04 57.94 58.06 58.28 58.37 59.15 58.36 59.27 60.38 65.03 67.05 67.49 68.04 69.89 70.47 71.01
63.74 63.14 63.34 63.24 62.88 62.56 62.47 61.76 61.15 60.68 59.91 58.84 58.31 58.06 57.77 57.33 57.03 57.29 57.56 57.53 58.03 58.40 58.56 58.45 58.13 57.51 57.19 56.72 56.66 56.97 57.03 56.93 57.46 56.47 57.46 60.21 66.26 66.69 66.52 66.35 67.45 69.11 69.99
63.07 62.65 62.87 63.06 62.77 62.54 62.18 61.62 60.59 59.98 59.21 58.22 57.94 57.33 56.78 56.48 56.21 56.17 56.53 56.46 56.76 56.99 57.58 57.67 57.33 56.77 56.10 55.55 55.58 55.65 55.91 56.07 55.19 54.51 55.96 65.83 64.37 64.29 64.44 64.60 66.08 67.37 68.71
63.03 62.32 62.19 62.68 62.30 62.00 61.57 61.03 60.47 59.35 58.73 57.79 56.90 56.08 55.83 55.76 55.42 55.28 55.58 55.38 55.60 56.06 56.37 56.48 56.20 55.19 54.80 54.57 54.49 55.09 55.19 54.76 52.65 52.65 61.13 63.75 64.37 62.37 62.09 62.56 64.26 65.78 67.18
63.15 62.57 62.68 62.65 61.97 61.71 61.01 60.00 59.40 58.38 57.74 56.99 55.67 54.88 55.31 55.38 54.32 54.41 54.56 54.21 54.88 55.10 55.15 55.12 54.98 54.12 53.91 53.78 54.37 55.10 54.16 52.40 50.91 54.23 58.70 61.59 64.17 60.91 60.94 61.06 62.20 63.92 64.79
63.01 63.11 62.66 62.35 61.57 61.24 60.98 59.82 58.34 57.79 56.76 55.91 53.94 54.72 54.70 53.40 54.18 54.32 53.09 52.69 53.65 53.51 53.74 54.13 52.84 53.11 53.67 54.06 54.13 54.17 53.97 52.27 52.21 53.80 56.99 57.93 61.99 59.02 59.40 59.03 59.35 59.72 62.30
62.31 62.93 61.61 61.94 61.10 60.61 59.55 59.19 58.23 56.89 55.99 53.72 53.76 54.07 53.69 53.76 53.12 52.81 51.96 52.14 51.57 51.98 51.96 52.54 52.43 53.98 53.70 52.83 52.54 52.68 52.28 51.89 51.62 52.83 54.87 58.35 60.13 56.88 57.99 57.74 58.06 58.20 58.78
61.71 61.67 60.73 60.28 59.73 59.63 59.08 58.25 57.87 56.17 54.88 53.34 54.23 53.62 53.18 52.40 51.69 52.51 51.02 51.46 51.60 51.06 51.42 53.21 53.35 52.22 51.64 50.78 50.50 50.41 50.62 50.08 51.22 52.56 53.18 57.63 56.01 56.32 56.68 56.39 56.62 56.90 57.31
62.02 61.73 61.44 60.34 59.69 58.78 57.79 57.33 57.02 55.68 54.32 53.94 53.80 52.29 51.88 51.76 51.06 51.06 51.04 52.30 52.40 51.35 50.88 52.74 51.67 50.46 49.47 49.05 49.07 49.24 49.07 47.66 51.12 52.89 53.12 57.02 55.26 56.57 55.09 54.92 55.01 55.67 56.17
60.91 60.22 60.34 59.96 59.09 58.75 57.54 56.71 56.11 54.97 54.23 54.49 53.59 51.61 51.40 50.02 49.20 49.94 50.26 50.54 49.91 50.71 50.26 52.19 50.84 48.83 48.08 47.44 47.57 48.26 47.14 47.49 50.64 52.68 55.86 55.55 54.40 54.07 52.95 52.78 53.51 54.36 55.29
58.26 60.05 60.08 58.45 57.85 57.45 57.25 57.35 55.65 54.81 54.54 54.08 53.65 51.65 50.67 54.70 53.10 51.12 49.78 48.31 48.30 48.60 49.31 50.76 48.38 47.19 45.87 45.55 45.84 45.76 46.34 50.82 50.74 52.18 54.36 51.34 52.38 53.74 52.70 51.89 52.33 52.94 53.92
57.85 57.98 59.00 57.96 56.65 56.73 56.08 57.93 57.75 56.82 56.67 56.53 55.76 55.53 53.96 54.15 53.26 50.47 49.49 46.76 46.95 47.82 48.92 48.61 46.68 45.55 46.49 49.93 50.20 47.19 50.36 49.89 50.80 51.41 52.20 49.68 51.24 52.69 54.58 54.17 52.36 52.64 53.20
57.05 56.31 57.53 57.68 56.71 56.20 55.92 57.34 56.92 56.86 56.95 56.55 55.64 55.07 54.77 53.05 53.86 51.97 51.86 50.84 52.15 48.54 51.30 49.09 49.10 49.62 47.89 48.92 50.02 49.83 49.57 49.05 50.86 50.90 50.43 46.44 48.93 51.59 53.38 54.90 54.08 53.52 52.70
54.93 55.17 56.46 56.72 56.19 56.24 56.00 56.18 56.69 56.26 56.39 55.83 55.51 54.82 53.61 52.36 52.07 51.14 50.57 51.37 50.82 51.44 50.58 49.78 49.94 49.51 48.33 48.07 47.98 48.24 48.23 48.26 49.36 49.13 49.67 44.29 46.26 48.75 51.71 54.20 54.57 54.40 53.27
53.85 54.62 55.43 55.98 55.89 55.78 55.81 55.63 55.40 55.44 55.26 55.78 55.22 54.61 53.57 51.84 51.44 51.17 50.60 50.35 50.19 50.58 49.88 49.57 49.28 48.58 48.14 47.92 48.01 47.54 47.31 47.47 47.69 48.22 48.40 44.21 44.57 46.77 48.95 52.09 54.61 54.63 55.05
53.93 53.98 55.03 55.08 56.09 56.16 55.48 54.97 54.92 54.86 54.75 54.24 53.88 53.43 53.52 52.52 51.85 51.09 50.54 49.98 49.71 49.82 49.80 49.43 48.82 48.29 47.91 47.64 47.22 47.53 47.26 47.36 47.41 47.37 47.34 47.93 43.75 44.67 46.96 49.35 51.97 54.26 55.29
53.84 53.98 54.53 54.96 55.76 55.78 55.54 54.44 54.52 54.47 53.57 53.37 53.32 53.74 53.11 53.00 52.49 51.79 50.50 49.87 49.84 50.18 49.49 48.99 48.35 48.15 47.06 47.14 46.58 46.78 47.11 47.05 47.08 46.72 46.78 47.14 47.63 44.50 44.78 47.42 49.24 51.30 53.30
53.67 53.71 54.57 53.85 54.56 54.80 54.08 54.58 54.58 54.49 53.59 53.43 52.90 52.92 52.70 52.42 52.45 51.57 50.21 49.80 50.35 49.93 48.96 48.22 47.72 46.82 46.50 46.27 45.85 46.11 46.40 46.66 46.36 46.06 46.43 46.82 47.07 47.29 46.32 45.55 47.46 49.32 50.72
54.44 54.13 53.97 54.18 53.52 54.21 54.61 54.61 54.65 54.34 53.89 53.26 52.59 51.81 51.59 51.12 50.84 50.54 49.66 49.80 50.36 49.37 48.68 47.93 47.27 46.72 45.78 45.78 45.44 45.60 45.88 45.58 45.83 45.47 45.42 46.11 47.27 47.18 47.44 46.63 46.29 47.70 49.20
54.67 54.58 54.06 53.22 54.13 54.60 54.33 54.37 53.92 52.80 52.37 52.22 51.43 51.04 50.63 50.13 49.51 49.63 49.20 49.46 49.57 48.56 47.86 47.62 46.80 46.95 45.99 45.47 44.28 44.06 44.86 45.49 45.76 45.57 45.59 45.59 46.45 47.30 47.81 47.93 48.73 48.09 48.02
52.19 52.06 53.59 53.66 54.19 53.49 53.05 52.44 52.11 51.49 52.08 51.57 51.40 51.00 50.30 49.25 48.77 48.37 47.95 48.09 48.48 47.57 47.30 47.36 46.53 45.71 44.86 45.79 43.54 43.29 44.11 45.26 45.31 45.32 45.78 45.55 46.69 47.02 47.65 47.89 48.25 49.35 49.63
51.82 53.77 54.14 53.31 52.82 53.39 53.00 52.62 51.46 51.03 50.72 50.52 50.21 50.01 49.24 48.59 48.29 47.48 47.12 46.62 46.87 46.13 46.34 46.07 45.59 43.99 44.13 44.92 42.23 41.82 38.74 42.39 43.40 44.24 45.58 46.18 47.20 48.04 47.44 47.73 48.15 48.89 50.38
52.05 52.05 51.77 53.40 52.70 51.86 51.65 50.83 49.78 50.46 49.90 49.09 48.51 47.60 47.82 48.00 47.56 47.15 46.75 46.16 46.03 45.66 44.56 45.16 45.00 44.06 41.66 43.82 44.57 41.52 38.39 37.05 41.87 43.71 44.16 45.65 46.93 47.66 48.17 48.05 48.00 48.50 50.17
50.70 51.75 51.68 51.01 51.33 50.83 50.16 47.27 48.54 47.04 45.19 46.14 46.30 46.91 46.87 47.40 46.66 46.26 45.99 45.66 45.27 45.08 44.40 44.31 44.09 43.54 42.87 40.82 43.25 43.11 43.49 42.10 38.91 39.00 43.01 44.90 46.49 46.58 47.91 48.63 48.23 48.53 49.86
51.11 52.90 52.50 50.96 50.09 49.57 49.82 48.98 47.12 45.93 45.67 45.99 45.74 45.64 46.10 46.41 46.38 45.58 45.46 45.04 44.44 44.32 44.17 43.86 43.65 43.18 42.90 41.86 41.74 42.55 41.64 41.84 41.69 38.97 37.66 41.94 44.96 46.97 48.11 48.14 48.24 48.91 49.91
50.92 50.39 49.99 49.29 48.65 48.56 47.92 47.43 46.51 45.42 44.96 44.17 44.08 43.51 44.00 44.49 44.59 44.65 44.63 44.50 44.55 44.07 43.72 43.53 43.61 43.36 42.71 42.36 42.27 42.08 41.24 40.09 39.39 39.26 37.96 40.03 42.01 45.36 48.08 47.92 48.48 49.26 50.47
MSLP
1015.73 1017.14 1018.18 1018.54 1018.95 1019.31 1019.65 1020.02 1020.34 1020.60 1020.79 1020.97 1021.06 1021.27 1021.34 1021.36 1021.40 1021.34 1021.32 1021.20 1021.18 1020.92 1020.78 1020.81 1020.85 1020.86 1020.84 1020.86 1020.78 1020.62 1020.51 1020.36 1020.23 1020.16 1019.86 1019.51 1018.91 1018.65 1018.56 1018.45 1017.82 1017.65 1017.80
1015.82 1017.45 1018.26 1018.63 1019.01 1019.41 1019.86 1020.23 1020.58 1020.85 1021.09 1021.21 1021.41 1021.56 1021.64 1021.70 1021.74 1021.71 1021.65 1021.55 1021.42 1021.25 1021.19 1021.17 1021.20 1021.22 1021.25 1021.24 1021.12 1020.92 1020.75 1020.67 1020.62 1020.43 1019.98 1019.38 1019.05 1019.05 1018.91 1018.79 1018.65 1018.35 1018.19
1016.60 1017.71 1018.25 1018.86 1019.28 1019.69 1020.11 1020.46 1020.75 1021.04 1021.31 1021.56 1021.70 1021.90 1021.98 1022.00 1022.02 1022.02 1021.95 1021.95 1021.84 1021.66 1021.51 1021.45 1021.51 1021.59 1021.64 1021.56 1021.43 1021.27 1021.10 1020.94 1020.90 1020.66 1020.01 1018.57 1019.10 1019.47 1019.42 1019.28 1019.09 1018.82 1018.60
1016.92 1017.66 1018.19 1019.03 1019.47 1019.90 1020.28 1020.64 1020.95 1021.20 1021.51 1021.76 1022.04 1022.21 1022.28 1022.32 1022.34 1022.39 1022.35 1022.29 1022.17 1022.00 1021.85 1021.82 1021.84 1021.97 1021.95 1021.86 1021.73 1021.52 1021.32 1021.34 1021.16 1020.61 1019.36 1019.14 1018.79 1019.83 1019.74 1019.64 1019.45 1019.27 1019.02
1016.96 1017.72 1018.35 1019.15 1019.64 1020.08 1020.45 1020.81 1021.15 1021.43 1021.84 1022.13 1022.42 1022.50 1022.56 1022.56 1022.64 1022.57 1022.69 1022.55 1022.41 1022.26 1022.17 1022.15 1022.19 1022.17 1022.08 1022.05 1021.95 1021.83 1021.77 1021.55 1021.24 1020.24 1019.61 1019.65 1019.10 1020.06 1020.09 1020.07 1019.73 1019.74 1019.62
1016.70 1017.59 1018.86 1019.36 1019.82 1020.25 1020.67 1021.02 1021.37 1021.78 1022.17 1022.46 1022.71 1022.69 1022.76 1022.87 1022.85 1022.74 1022.91 1022.77 1022.67 1022.60 1022.47 1022.46 1022.50 1022.35 1022.23 1022.13 1022.13 1022.11 1022.00 1021.82 1021.09 1020.12 1020.17 1020.29 1019.81 1020.53 1020.58 1020.61 1020.53 1020.34 1020.17
1016.67 1017.68 1018.85 1019.51 1020.04 1020.41 1020.73 1021.12 1021.60 1022.12 1022.42 1022.71 1022.85 1022.87 1022.95 1022.99 1022.99 1022.84 1022.96 1022.80 1022.79 1022.78 1022.71 1022.66 1022.60 1022.49 1022.53 1022.55 1022.46 1022.39 1022.31 1022.07 1021.09 1020.45 1020.30 1020.21 1020.36 1020.84 1020.87 1020.89 1020.82 1020.68 1020.51
1016.95 1018.26 1019.07 1019.77 1020.23 1020.55 1020.97 1021.39 1021.78 1022.31 1022.61 1022.86 1022.85 1022.86 1022.98 1023.05 1023.06 1022.99 1023.00 1022.87 1022.78 1022.84 1022.75 1022.73 1022.86 1022.96 1022.97 1022.92 1022.80 1022.63 1022.53 1022.35 1021.07 1020.86 1020.52 1020.33 1021.04 1021.06 1021.14 1021.19 1021.15 1021.08 1020.97
1017.36 1017.94 1018.70 1019.45 1020.18 1020.79 1021.27 1021.59 1021.98 1022.39 1022.66 1022.86 1022.92 1023.11 1023.24 1023.27 1023.29 1023.20 1023.14 1023.07 1023.06 1023.01 1022.88 1022.97 1023.06 1023.27 1023.28 1023.18 1023.01 1022.82 1022.76 1022.60 1021.47 1021.00 1020.68 1020.17 1021.15 1021.09 1021.38 1021.46 1021.40 1021.37 1021.28
1017.88 1018.47 1018.89 1019.44 1019.93 1020.48 1021.09 1021.62 1021.97 1022.30 1022.59 1022.84 1023.12 1023.35 1023.43 1023.46 1023.51 1023.43 1023.34 1023.32 1023.36 1023.22 1023.06 1023.10 1023.28 1023.45 1023.52 1023.35 1023.13 1022.99 1022.89 1022.40 1021.42 1021.21 1020.83 1021.29 1021.60 1021.40 1021.61 1021.71 1021.64 1021.58 1021.54
1018.22 1018.63 1019.08 1019.53 1019.95 1020.27 1020.71 1021.43 1022.01 1022.35 1022.68 1022.96 1023.14 1023.43 1023.45 1022.66 1022.83 1022.89 1023.42 1023.57 1023.56 1023.47 1023.25 1023.32 1023.51 1023.63 1023.63 1023.33 1023.26 1023.21 1022.78 1021.56 1021.47 1021.24 1020.97 1022.14 1022.08 1021.66 1021.61 1021.77 1021.80 1021.76 1021.71
1017.52 1018.38 1019.01 1019.69 1020.13 1020.50 1020.51 1021.14 1021.35 1021.70 1021.90 1022.10 1022.23 1022.54 1022.68 1022.86 1022.86 1023.01 1023.34 1023.73 1023.63 1023.51 1023.43 1023.51 1023.64 1023.65 1023.40 1022.26 1022.11 1022.70 1021.75 1022.04 1021.62 1021.55 1021.31 1022.51 1022.32 1022.01 1021.76 1021.50 1021.74 1021.77 1021.79
1017.10 1017.93 1018.62 1019.60 1020.25 1020.41 1020.44 1020.79 1020.97 1021.14 1021.39 1021.81 1022.32 1022.58 1022.64 1022.81 1022.77 1022.81 1022.66 1022.72 1022.80 1023.36 1022.68 1023.11 1023.08 1022.53 1022.68 1022.69 1022.25 1022.31 1022.19 1022.00 1021.56 1021.57 1021.95 1022.81 1022.64 1022.31 1021.98 1021.54 1021.52 1021.62 1021.80
1016.88 1017.71 1018.50 1019.36 1020.24 1020.59 1020.57 1020.76 1020.80 1020.92 1021.25 1021.44 1021.82 1022.49 1022.58 1022.56 1022.59 1022.77 1022.45 1022.52 1022.85 1022.55 1022.54 1022.65 1022.25 1022.71 1022.82 1022.85 1022.76 1022.54 1022.46 1022.17 1021.65 1021.69 1021.67 1022.75 1022.82 1022.64 1022.31 1021.81 1021.49 1021.50 1021.60
1016.74 1017.65 1018.47 1019.27 1020.16 1020.63 1020.97 1020.61 1020.86 1021.00 1021.09 1021.23 1021.66 1022.09 1022.46 1022.26 1022.25 1022.38 1022.39 1022.46 1022.39 1022.41 1022.43 1022.40 1022.29 1022.30 1022.31 1022.43 1022.53 1022.50 1022.32 1022.25 1022.22 1021.97 1021.69 1022.34 1022.81 1022.72 1022.48 1022.15 1021.69 1021.45 1021.32
1016.86 1017.80 1018.70 1019.41 1020.11 1020.47 1020.62 1020.96 1020.88 1020.97 1020.94 1021.36 1021.34 1021.63 1022.22 1022.25 1022.10 1022.02 1022.10 1022.19 1022.17 1022.24 1022.18 1022.26 1022.09 1022.08 1022.02 1022.05 1022.05 1022.23 1022.22 1022.08 1021.99 1022.11 1021.78 1021.56 1022.40 1022.66 1022.54 1022.29 1022.04 1021.74 1021.43
1016.99 1017.90 1018.83 1019.47 1020.17 1020.49 1020.56 1020.77 1020.71 1020.67 1020.93 1020.91 1020.97 1021.44 1021.82 1021.98 1021.85 1022.09 1021.74 1021.78 1021.81 1021.95 1022.36 1022.31 1022.34 1022.22 1022.04 1021.77 1021.87 1021.86 1021.90 1021.89 1021.78 1021.86 1021.84 1021.53 1021.27 1022.07 1022.35 1022.27 1022.11 1021.95 1021.74
1016.95 1017.81 1018.75 1019.26 1019.94 1020.41 1020.53 1020.48 1020.44 1020.44 1020.68 1020.64 1020.73 1020.91 1021.18 1021.51 1021.63 1021.58 1021.38 1021.25 1021.41 1021.65 1021.82 1021.80 1021.73 1021.60 1021.49 1021.40 1021.39 1021.35 1021.30 1021.33 1021.52 1021.63 1021.62 1021.45 1021.10 1021.06 1021.43 1021.87 1021.97 1021.85 1021.79
1017.11 1017.99 1018.70 1019.35 1019.92 1020.17 1020.35 1020.36 1020.51 1020.57 1020.53 1020.28 1020.37 1020.40 1020.56 1020.95 1021.17 1021.15 1020.83 1020.66 1020.95 1021.12 1021.27 1021.38 1021.24 1021.35 1021.19 1021.02 1021.01 1021.08 1021.13 1021.03 1021.02 1020.90 1021.03 1021.13 1021.11 1021.20 1020.87 1020.90 1021.63 1021.80 1021.79
1017.46 1018.36 1018.92 1019.55 1019.80 1020.10 1020.18 1020.36 1020.13 1020.13 1020.14 1020.08 1020.02 1019.92 1020.18 1020.34 1020.44 1020.62 1020.36 1020.35 1020.55 1020.50 1020.54 1020.67 1020.82 1020.81 1020.91 1020.84 1020.65 1020.53 1020.72 1020.67 1020.57 1020.44 1020.44 1020.55 1020.47 1020.67 1020.81 1020.70 1020.54 1021.13 1021.64
1018.56 1019.21 1019.22 1019.53 1019.87 1020.11 1019.96 1019.76 1019.58 1019.45 1019.36 1019.41 1019.41 1019.55 1019.85 1019.90 1020.03 1020.12 1019.88 1019.75 1019.99 1019.99 1019.95 1020.11 1020.33 1020.46 1020.48 1020.54 1020.64 1020.22 1019.95 1019.88 1020.09 1019.99 1019.90 1019.96 1019.91 1020.11 1020.38 1020.47 1020.37 1020.12 1020.42
1019.03 1019.02 1019.14 1019.52 1019.98 1020.02 1019.86 1019.80 1019.87 1019.64 1019.42 1019.22 1019.23 1019.26 1019.36 1019.49 1019.62 1019.56 1019.44 1019.24 1019.16 1019.19 1019.35 1019.70 1019.92 1019.85 1019.75 1019.96 1019.92 1019.87 1019.15 1018.41 1019.26 1019.64 1019.51 1019.59 1019.63 1019.58 1019.69 1020.15 1020.02 1020.00 1019.95
1019.28 1019.41 1019.69 1019.65 1019.75 1020.12 1020.16 1019.94 1019.86 1019.57 1019.07 1018.59 1018.19 1018.10 1018.16 1018.62 1018.89 1018.94 1018.85 1018.82 1018.80 1018.86 1018.76 1018.95 1019.27 1019.42 1019.33 1019.11 1019.54 1020.08 1019.57 1018.34 1018.18 1018.90 1019.47 1019.26 1019.50 1019.24 1019.25 1019.56 1019.78 1019.81 1019.87
1019.61 1019.74 1019.71 1019.94 1019.84 1019.92 1020.10 1020.04 1019.46 1019.12 1018.53 1018.18 1018.19 1017.98 1017.95 1018.08 1018.02 1018.08 1017.99 1018.01 1018.06 1018.04 1018.06 1018.29 1018.62 1018.81 1018.93 1018.75 1018.70 1019.48 1019.69 1019.69 1019.45 1018.49 1018.72 1018.96 1019.25 1019.19 1019.12 1018.92 1019.25 1019.49 1019.58
1019.62 1019.71 1019.87 1019.93 1019.83 1019.79 1019.63 1019.58 1019.26 1018.76 1018.32 1017.93 1017.76 1017.44 1017.20 1017.12 1017.12 1017.11 1017.14 1017.15 1017.21 1017.29 1017.31 1017.58 1017.79 1018.09 1018.19 1018.37 1018.31 1018.41 1019.14 1019.31 1019.81 1020.03 1018.74 1018.08 1018.68 1018.76 1018.81 1018.87 1018.79 1018.98 1019.25
1019.78 1019.89 1019.99 1019.81 1019.35 1019.25 1019.34 1019.25 1019.04 1018.63 1018.16 1017.64 1017.12 1016.77 1016.36 1016.00 1015.86 1015.79 1015.91 1016.12 1016.10 1016.06 1016.27 1016.63 1017.03 1017.28 1017.51 1017.80 1018.10 1018.16 1018.54 1019.09 1019.36 1019.72 1019.44 1018.57 1018.07 1018.22 1018.63 1018.59 1018.76 1018.55 1018.66
Wind_Speed
13 18 17 16 16 15 15 14 15 13 12 12 10 11 11 10 9 9 9 9 9 9 9 9 10 10 11 10 10 10 11 11 11 11 10 6 3 6 9 10 9 10 13
18 17 17 17 16 16 16 15 14 12 11 10 10 10 10 9 9 8 9 8 8 9 9 9 10 9 10 10 10 10 11 10 11 10 9 6 7 10 10 10 12 11 13
18 16 17 17 17 16 15 14 13 12 11 9 9 8 8 8 8 8 8 8 8 8 8 9 9 10 9 9 9 10 10 10 10 9 8 3 10 10 11 11 9 10 13
18 15 16 18 17 16 15 14 13 12 10 9 8 7 7 7 7 7 7 7 7 7 8 8 9 9 9 9 9 10 10 12 10 9 2 3 6 10 10 10 11 11 10
17 14 16 18 17 16 15 14 13 11 10 8 7 6 6 6 5 5 7 6 7 7 8 7 9 8 8 8 10 11 12 12 8 8 4 5 2 10 10 11 10 11 13
18 17 18 17 17 16 14 14 12 11 9 8 6 6 6 4 4 5 5 5 7 6 6 7 7 7 7 10 9 12 12 12 13 5 4 5 5 8 9 10 11 12 13
16 17 16 15 15 15 13 13 13 11 10 8 6 5 5 5 3 1 3 4 4 4 4 5 3 8 10 10 10 11 11 12 9 5 2 1 5 3 7 9 11 12 13
15 17 15 15 13 13 13 12 12 11 9 8 7 6 6 4 2 5 3 1 2 2 2 5 7 7 8 8 9 9 10 11 5 4 3 2 6 0 6 7 9 11 12
14 14 14 14 13 13 12 11 12 11 10 9 7 6 6 5 3 3 2 3 4 3 1 4 5 6 6 8 8 8 8 8 7 4 3 2 6 5 5 6 7 9 10
13 12 12 12 13 13 12 13 13 12 11 10 8 6 5 4 2 3 3 4 2 3 1 4 4 2 4 6 7 6 7 8 4 2 0 8 7 2 2 4 6 8 8
12 12 11 11 10 10 11 11 11 10 10 8 8 6 7 1 0 5 8 3 1 2 2 4 2 3 3 3 2 3 9 3 4 2 1 8 6 4 3 3 4 6 7
17 14 12 11 10 9 8 11 9 9 8 7 6 5 4 1 3 6 3 1 1 2 2 2 1 3 9 4 1 7 2 4 3 2 2 7 6 6 8 5 4 4 5
17 13 14 11 10 9 7 6 5 5 4 5 5 5 3 3 3 4 2 4 2 5 6 7 7 6 4 5 3 3 3 5 2 3 4 4 6 7 7 8 7 4 3
16 15 13 13 10 8 6 6 5 4 4 4 4 5 4 4 4 4 4 3 3 3 3 5 3 4 6 5 6 4 4 5 3 4 1 1 5 7 8 9 7 6 3
15 14 13 12 10 8 7 4 4 4 4 3 4 5 5 6 5 5 5 5 5 4 4 5 4 5 5 6 6 6 6 5 6 5 4 3 5 8 8 9 10 9 7
13 14 12 11 9 8 7 5 4 4 3 5 4 5 7 7 6 7 7 7 6 5 5 5 5 5 5 5 6 7 7 6 6 6 6 5 5 8 9 10 10 10 10
11 13 12 10 9 8 8 6 5 4 4 5 5 6 8 9 9 10 8 8 7 6 7 6 6 6 6 6 7 7 7 7 7 7 6 6 5 11 10 12 12 11 10
12 12 12 9 10 9 8 6 4 3 5 5 6 6 9 10 11 10 9 9 9 7 8 8 7 7 6 6 6 6 6 6 7 8 8 7 6 6 9 13 13 11 11
10 11 11 9 9 10 7 5 6 5 6 6 6 7 8 9 10 10 10 10 10 9 9 9 8 8 8 7 7 6 7 7 8 7 8 9 9 8 6 8 12 11 12
8 8 8 8 9 8 5 6 6 5 6 6 7 8 9 8 10 9 10 11 10 10 10 10 11 9 8 9 8 7 7 8 8 8 8 8 8 8 8 9 8 10 14
4 5 10 9 8 6 6 6 6 7 6 7 8 10 11 10 10 10 9 10 10 11 12 11 11 12 10 9 9 9 9 10 10 9 7 7 7 8 8 8 7 6 9
7 9 8 7 6 7 4 5 5 7 8 9 9 11 11 11 11 11 12 11 12 11 13 13 13 10 10 10 9 8 8 6 6 7 5 5 5 6 7 9 9 9 8
7 4 5 7 5 5 6 6 6 9 10 10 11 10 9 10 12 13 14 12 12 12 11 12 13 14 11 10 12 7 5 6 3 5 7 5 4 5 6 7 9 10 10
1 2 3 4 5 6 6 8 12 12 13 11 11 11 11 14 15 15 15 15 14 12 13 12 12 13 12 12 9 10 12 6 4 3 5 5 5 5 5 6 7 10 10
3 1 3 6 7 8 9 11 11 14 12 12 12 16 15 14 16 16 15 15 15 12 14 15 14 14 12 11 11 9 11 10 9 7 7 5 5 4 3 5 6 8 10
4 6 6 8 10 11 11 13 14 16 16 14 15 15 13 12 12 15 16 15 15 14 15 14 16 17 14 13 11 12 9 8 8 7 8 8 5 5 3 4 6 7 8
Wind_Direction
155 127 148 143 135 131 127 123 115 112 105 98 95 88 81 76 72 68 63 58 54 52 53 53 47 42 37 34 28 27 24 20 17 4 352 331 329 61 61 37 11 51 40
136 145 148 145 141 134 129 123 122 113 111 111 97 90 83 80 75 69 64 56 53 53 54 51 49 41 37 30 24 21 19 14 15 358 336 240 89 65 58 47 30 42 40
129 146 149 141 138 134 128 126 124 122 114 107 95 89 88 83 76 69 63 52 45 48 49 49 47 43 35 29 23 19 16 15 5 350 313 106 95 67 58 51 46 44 41
138 148 144 142 138 136 133 131 129 124 120 109 104 92 87 89 79 79 66 48 48 45 47 44 46 44 39 33 29 26 25 19 357 323 207 86 95 64 59 50 44 41 32
139 149 136 142 143 140 142 137 134 126 119 114 101 97 99 101 86 84 70 52 50 45 45 44 50 44 42 41 38 45 28 14 344 279 54 45 30 69 55 36 51 45 33
148 144 138 141 143 142 143 137 130 128 124 113 111 111 100 100 48 92 68 48 46 43 39 44 44 46 46 57 44 23 19 7 307 26 32 108 25 69 60 52 46 39 32
145 128 144 139 147 150 152 144 137 133 131 124 123 133 105 110 97 106 94 41 50 50 29 56 46 68 46 35 24 20 17 359 341 6 9 149 83 37 59 49 43 37 29
143 140 140 141 149 151 145 146 138 140 139 139 131 90 121 125 71 69 63 35 119 67 48 85 73 55 43 26 13 11 10 355 314 9 353 223 58 210 70 51 42 35 29
147 142 145 151 151 146 146 149 142 148 149 150 129 112 102 107 86 78 47 59 36 17 30 119 89 69 28 10 0 359 6 342 312 7 339 192 34 123 69 48 32 27 24
148 145 148 150 159 156 154 158 157 157 156 156 141 137 121 128 111 133 197 106 9 340 9 98 91 63 12 354 351 1 324 268 359 308 196 49 349 64 63 22 17 8 12
152 160 156 154 151 154 153 154 160 160 161 161 166 159 193 274 206 206 62 58 340 307 229 133 80 20 310 233 36 333 282 13 315 341 261 38 351 336 268 298 330 347 355
163 160 160 157 159 158 158 158 168 161 181 192 194 183 240 314 348 336 51 114 249 271 186 163 143 229 249 316 181 213 316 350 282 305 51 17 342 319 312 238 274 309 337
161 161 163 162 164 174 153 169 175 175 180 189 218 231 228 263 228 249 269 206 221 181 221 199 200 243 334 309 317 315 328 273 308 287 87 13 335 325 309 304 248 264 312
162 160 164 166 168 184 171 192 173 196 192 215 207 218 249 241 238 269 274 276 255 263 293 250 259 302 288 282 290 279 283 297 312 306 213 102 312 304 308 297 279 273 266
163 161 167 165 174 179 205 181 213 221 201 236 222 204 247 262 255 260 264 266 277 264 253 258 262 267 272 257 262 262 264 277 292 291 299 147 284 285 284 290 291 274 276
162 159 163 174 181 188 212 204 206 209 207 225 229 240 226 256 262 264 252 252 257 253 263 268 276 282 280 291 267 255 265 276 271 292 292 284 208 266 270 270 275 295 298
165 157 166 178 185 200 204 203 220 218 239 246 251 241 252 250 253 259 260 255 256 250 259 255 255 251 266 261 266 267 259 255 266 269 277 277 256 203 245 255 261 267 280
166 166 173 180 184 189 198 206 233 232 249 261 261 259 254 257 256 259 254 255 251 246 247 250 254 257 259 270 274 270 261 263 265 267 265 271 269 276 198 233 245 252 264
167 174 179 181 188 197 197 223 234 249 253 262 265 264 262 258 257 256 257 256 249 243 243 246 249 252 271 264 262 259 264 267 263 260 266 262 260 259 258 209 226 238 252
165 175 178 194 203 205 215 235 252 257 262 263 268 269 272 261 259 254 255 256 249 244 242 242 251 255 251 270 270 268 265 268 266 259 257 254 252 250 242 245 208 214 230
118 202 208 202 203 215 224 248 252 264 277 271 270 271 271 270 260 259 259 256 242 249 249 251 244 245 253 239 262 260 257 244 246 255 253 244 243 231 238 231 234 234 190
227 228 215 222 213 233 263 282 288 299 290 291 290 288 283 271 262 260 257 257 254 252 245 244 248 251 248 245 242 261 267 220 212 222 229 224 236 250 220 224 229 221 230
251 259 236 232 258 267 287 286 277 269 260 262 271 279 274 266 264 263 259 256 258 255 252 244 239 241 247 244 228 225 263 244 105 158 207 232 231 236 230 219 217 216 216
54 193 251 255 273 286 307 285 282 289 291 295 293 285 284 276 269 260 257 251 249 248 246 245 242 243 234 239 226 214 222 255 294 250 188 204 228 238 226 215 204 211 208
87 106 323 320 304 286 298 298 297 295 296 298 293 289 277 268 261 264 258 252 247 245 244 243 240 232 231 229 232 210 222 224 225 240 272 181 208 214 231 219 203 205 202
31 10 339 309 306 312 312 305 300 296 295 291 289 290 283 278 275 266 258 251 251 245 240 239 235 234 227 229 226 233 207 222 215 216 234 260 268 153 230 206 202 203 195